Overview Statistics Trail Chart Weather Telemetry Raw packets
 

This is the latest recevied weather packets stored in our database for station/object N1ICS-1. If no packets are shown the sender has not sent any weather packets the latest 10 day(s).

<< 3 4 5 6 7 8 9 >>
Time Temp. Humidity Pressure Rain* Wind** Luminosity Snow
1788555302 27.22° C 85% 1015.1 hPa 0 mm - 445 W/m² -
1788555002 27.22° C 85% 1015.1 hPa 0 mm - 422 W/m² -
1788554701 26.67° C 85% 1015.2 hPa 0 mm - 515 W/m² -
1788554402 26.67° C 86% 1015.2 hPa 0 mm - 339 W/m² -
1788554102 26.67° C 86% 1015.1 hPa 0 mm - 321 W/m² -
1788553801 26.67° C 85% 1015.2 hPa 0 mm - 294 W/m² -
1788553502 26.67° C 86% 1015 hPa 0 mm - 291 W/m² -
1788552902 26.67° C 85% 1015 hPa 0 mm - 449 W/m² -
1788552602 26.67° C 84% 1014.8 hPa 0 mm - 339 W/m² -
1788552302 26.11° C 85% 1014.7 hPa 0 mm - 370 W/m² -
1788552003 26.11° C 86% 1014.9 hPa 0 mm - 303 W/m² -
1788551401 27.22° C 85% 1015.2 hPa 0 mm - 469 W/m² -
1788550802 27.22° C 85% 1015.5 hPa 0 mm - 648 W/m² -
1788550202 26.67° C 88% 1016 hPa 0 mm - 622 W/m² -
1788549902 26.67° C 87% 1016.3 hPa 0 mm - 484 W/m² -
1788549302 27.22° C 86% 1016.5 hPa 0 mm - 544 W/m² -
1788549002 26.67° C 84% 1017.3 hPa 0 mm - 582 W/m² -
1788548702 27.78° C 82% 1017.9 hPa 0 mm - 443 W/m² -
1788548102 27.22° C 79% 1018.5 hPa 0 mm - 609 W/m² -
1788547802 27.22° C 84% 1018.4 hPa 0 mm - 651 W/m² -
1788547502 27.22° C 83% 1018.6 hPa 0 mm - 800 W/m² -
1788547202 27.22° C 85% 1018.7 hPa 0 mm - 999 W/m² -
1788546602 26.11° C 84% 1018.9 hPa 0 mm - 380 W/m² -
1788546002 26.11° C 87% 1019 hPa 0 mm - 635 W/m² -
1788545702 26.11° C 87% 1019 hPa 0 mm - 503 W/m² -

* Rain latest hour (hover to see other rain measurements)
** Current wind speed in m/s (hover to see current wind gust speed)